[[{"header":{"parameterUnit":"m.s-1","parameterCategory":1,"la1":30.2991,"la2":30.254,"lo1":-89.0895,"lo2":-89.0444,"dy":0.0017,"dx":0.0017,"nx":28,"ny":28,"refTime":"2026-02-10T09:00:00:Z","depth":0,"parameterNumber":2,"parameterNumberName":"U-component_of_WINDS"},"data":[0,0,0,0,0,0,0,0,0,0,0,0,0,0,0,0,0,0,0,0,0,0,0,0,0,0,0,0,0,0,0,0,0,0,0,0,0,0,0,0,0,0,0,0,0,0,0,0,0,0,0,0,0,0,0,0,0,0,1.3009,1.3009,0,1.3066,1.3067,1.3067,1.3105,1.3105,1.3105,1.3105,1.3165,1.3167,1.3168,0,0,0,0,0,0,0,0,0,0,0,0,0,1.2935,1.2936,1.3009,1.3009,1.301,1.3066,1.3067,1.3067,1.3105,1.3105,1.3105,1.3106,1.3165,1.3167,1.3168,0,0,0,0,0,0,0,0,0,0,0,0,0,1.2977,1.2936,1.3009,1.3035,1.3038,1.3066,1.3067,1.3068,1.3105,1.3105,1.3105,1.3106,1.3164,1.3166,1.3168,1.3174,0,0,1.3175,1.3176,0,0,0,0,0,0,0,0,1.2974,1.2979,1.3031,1.3034,1.3037,1.3079,1.3063,1.3103,1.3105,1.308,1.3105,1.3106,1.3136,1.3141,1.3151,1.3177,1.3179,1.3175,1.3176,1.3177,1.3178,0,0,0,0,0,0,0,1.2971,1.2977,1.3031,1.3032,1.3035,1.3046,1.3052,1.307,1.3105,1.3082,1.3085,1.3091,1.3138,1.3149,1.3152,1.318,1.3175,1.3177,1.3178,1.3179,1.3216,1.3216,0,0,0,0,0,0,1.2964,1.2975,1.303,1.3033,1.3006,1.3047,1.3054,1.3065,1.3105,1.3112,1.309,1.3092,1.3145,1.315,1.3155,1.3165,1.3177,1.3179,1.318,1.3217,1.3216,1.3216,0,0,0,0,0,0,1.2962,1.2968,1.3027,1.3005,1.3013,1.3047,1.306,1.3066,1.3076,1.3112,1.3118,1.3095,1.3145,1.3152,1.3169,1.3168,1.318,1.3182,1.3217,1.3217,1.3216,1.3186,0,0,0,0,0,0,1.296,1.2968,1.2969,1.3004,1.3014,1.304,1.306,1.3067,1.308,1.3083,1.3117,1.3123,1.3146,1.3166,1.3171,1.3171,1.3183,1.3217,1.3217,1.3216,1.3187,1.3184,1.3182,0,0,0,0,0,1.2957,1.2958,1.2969,1.2976,1.3017,1.304,1.3045,1.3071,1.3079,1.3082,1.3105,1.3122,1.3167,1.3167,1.3174,1.3174,1.3217,1.3217,1.3216,1.3188,1.3185,1.3182,0,0,0,0,0,0,1.2922,1.2963,1.2976,1.2988,1.301,1.3046,1.305,1.3067,1.3087,1.3089,1.3121,1.3128,1.3143,1.316,1.316,1.3183,1.3195,1.3195,1.3171,1.3168,1.3166,1.3161,1.3185,0,0,0,0,0,1.2915,1.293,1.2966,1.2973,1.2984,1.3015,1.3026,1.3044,1.3068,1.3078,1.3102,1.3126,1.3146,1.3158,1.3178,1.319,1.3199,1.3193,1.3191,1.3189,1.3189,1.3199,1.3197,1.3214,1.3214,1.3214,0,0,1.2902,1.2927,1.2934,1.2967,1.2986,1.3002,1.3022,1.3038,1.305,1.308,1.3099,1.3118,1.3146,1.3162,1.317,1.3176,1.3186,1.3188,1.3186,1.3187,1.3198,1.3196,1.3195,1.3214,1.3214,1.3214,0,0,1.2887,1.2906,1.2915,1.2935,1.2964,1.2985,1.2987,1.3021,1.3035,1.3053,1.3077,1.3093,1.3125,1.3146,1.316,1.3154,1.3172,1.316,1.3147,1.3156,1.3155,1.3154,1.3153,1.3153,1.316,1.316,1.316,0,1.2867,1.2891,1.2918,1.2932,1.2947,1.2975,1.2986,1.3003,1.3037,1.3047,1.3054,1.3097,1.3119,1.314,1.3139,1.3149,1.3154,1.3156,1.3153,1.3152,1.3152,1.3151,1.3151,1.3159,1.3159,1.3159,1.3159,0,1.2866,1.2882,1.2886,1.2919,1.2934,1.2946,1.2976,1.2988,1.3006,1.3026,1.3047,1.3073,1.31,1.3106,1.3123,1.3131,1.3134,1.3147,1.3159,1.3148,1.3148,1.3148,1.3156,1.3157,1.3157,1.3158,0,0,1.2828,1.2877,1.2878,1.2894,1.2929,1.2943,1.2958,1.2984,1.2994,1.3017,1.3031,1.3059,1.3071,1.3088,1.3107,1.3115,1.3111,1.3127,1.3128,1.3124,1.3123,1.3114,1.3113,1.3123,1.3123,1.3123,1.3121,0,1.2819,1.2846,1.2872,1.289,1.2906,1.2934,1.2947,1.2971,1.2991,1.3009,1.3032,1.3052,1.3065,1.3076,1.3085,1.3109,1.3111,1.311,1.3137,1.3138,1.313,1.3114,1.3104,1.3101,1.3122,1.3122,1.3122,0,1.2811,1.2833,1.2853,1.2888,1.2896,1.2907,1.2934,1.295,1.2978,1.2993,1.3012,1.3033,1.3051,1.3062,1.3088,1.3087,1.31,1.3114,1.3114,1.3118,1.3129,1.3118,1.31,1.31,1.3122,1.3122,1.3122,0,1.2783,1.2818,1.2835,1.2848,1.2889,1.2896,1.2914,1.2942,1.2957,1.2981,1.2991,1.3017,1.3031,1.3052,1.308,1.3084,1.3104,1.3116,1.3117,1.3117,1.312,1.312,1.3105,1.3127,1.3127,1.3127,1.3127,0,1.277,1.2782,1.2823,1.2834,1.2848,1.2878,1.2892,1.2912,1.2937,1.2953,1.2979,1.2994,1.303,1.3049,1.3071,1.3091,1.3097,1.311,1.3116,1.3108,1.3106,1.3117,1.3118,1.3127,1.3127,1.3127,1.3127,0,1.2742,1.277,1.2791,1.2828,1.2838,1.2847,1.288,1.2892,1.2914,1.2934,1.294,1.2976,1.3,1.303,1.3064,1.3079,1.3096,1.3105,1.3087,1.309,1.309,1.309,1.3082,1.3083,1.3104,1.3104,1.3103,0,1.2732,1.2741,1.2781,1.2793,1.281,1.2829,1.2845,1.2876,1.2891,1.2925,1.2933,1.2959,1.2982,1.3019,1.3048,1.3075,1.3085,1.308,1.3089,1.3081,1.3086,1.3086,1.3087,1.3078,1.3078,1.3077,1.3077,0,1.2712,1.2726,1.2747,1.2773,1.279,1.2813,1.2836,1.2845,1.2881,1.2897,1.2922,1.294,1.2975,1.3001,1.3032,1.3051,1.3071,1.3074,1.3076,1.3068,1.3058,1.3065,1.3081,1.3074,1.3075,1.3075,1.3075,1.3075,1.2693,1.2703,1.2733,1.2756,1.2777,1.2799,1.2812,1.2837,1.2858,1.2888,1.2906,1.2931,1.2961,1.3004,1.3023,1.3044,1.3051,1.3053,1.3054,1.3054,1.3052,1.3054,1.305,1.305,1.305,1.305,1.305,0,1.2675,1.2696,1.2717,1.2749,1.2768,1.2784,1.2812,1.2826,1.2848,1.2874,1.2896,1.2926,1.2952,1.2983,1.3012,1.3023,1.3033,1.3029,1.3029,1.3034,1.3044,1.304,1.3021,1.3021,1.3021,1.3021,1.3021,1.3021,1.2668,1.2687,1.2705,1.2735,1.2756,1.2781,1.2795,1.2816,1.2837,1.2869,1.2891,1.2911,1.294,1.2972,1.2997,1.3006,1.3016,1.301,1.3021,1.303,1.3033,1.3035,1.3032,1.3011,1.3011,1.301,1.301,1.301]},{"header":{"parameterUnit":"m.s-1","parameterCategory":1,"la1":30.2991,"la2":30.254,"lo1":-89.0895,"lo2":-89.0444,"dy":0.0017,"dx":0.0017,"nx":28,"ny":28,"refTime":"2026-02-10T09:00:00:Z","depth":0,"parameterNumber":3,"parameterNumberName":"V-component_of_WINDS"},"data":[0,0,0,0,0,0,0,0,0,0,0,0,0,0,0,0,0,0,0,0,0,0,0,0,0,0,0,0,0,0,0,0,0,0,0,0,0,0,0,0,0,0,0,0,0,0,0,0,0,0,0,0,0,0,0,0,0,0,0.23,0.23,0,0.2308,0.2308,0.2308,0.2297,0.2296,0.2296,0.2296,0.2302,0.2303,0.2303,0,0,0,0,0,0,0,0,0,0,0,0,0,0.2272,0.2272,0.23,0.23,0.23,0.2308,0.2308,0.2308,0.2297,0.2296,0.2296,0.2295,0.2302,0.2303,0.2303,0,0,0,0,0,0,0,0,0,0,0,0,0,0.2282,0.2273,0.23,0.2296,0.2295,0.2308,0.2308,0.2308,0.2297,0.2296,0.2296,0.2295,0.2302,0.2303,0.2304,0.2321,0,0,0.2306,0.2306,0,0,0,0,0,0,0,0,0.2282,0.2283,0.2296,0.2296,0.2296,0.2301,0.2301,0.2312,0.2297,0.2296,0.2296,0.2295,0.2302,0.2303,0.2306,0.2321,0.2321,0.2306,0.2307,0.2307,0.2307,0,0,0,0,0,0,0,0.2281,0.2283,0.2303,0.2296,0.2296,0.2292,0.2293,0.2303,0.2302,0.2296,0.2295,0.2297,0.2302,0.2305,0.2306,0.2321,0.2306,0.2307,0.2307,0.2308,0.2347,0.2348,0,0,0,0,0,0,0.2281,0.2282,0.2303,0.2303,0.2287,0.2293,0.2294,0.23,0.2302,0.2302,0.2297,0.2296,0.2304,0.2305,0.2306,0.2324,0.2307,0.2308,0.2308,0.2347,0.2347,0.2348,0,0,0,0,0,0,0.2281,0.2283,0.2303,0.2293,0.2295,0.2294,0.2301,0.23,0.2303,0.2303,0.2303,0.23,0.2303,0.2305,0.2316,0.2324,0.2308,0.2309,0.2346,0.2347,0.2347,0.2361,0,0,0,0,0,0,0.228,0.2283,0.2291,0.2293,0.2295,0.2314,0.2301,0.2301,0.2305,0.2303,0.2306,0.2306,0.2303,0.2315,0.2317,0.2325,0.231,0.2345,0.2346,0.2347,0.236,0.2363,0.2365,0,0,0,0,0,0.2279,0.2295,0.2291,0.2294,0.2305,0.2315,0.2316,0.2313,0.2306,0.2312,0.2311,0.2306,0.2323,0.2316,0.2319,0.2327,0.2345,0.2346,0.2347,0.2359,0.2362,0.2365,0,0,0,0,0,0,0.2294,0.2295,0.2291,0.2308,0.2311,0.2313,0.2321,0.2316,0.2321,0.232,0.2315,0.2316,0.2328,0.2328,0.2321,0.2342,0.2332,0.2334,0.2341,0.2344,0.2346,0.2345,0.231,0,0,0,0,0,0.2299,0.2307,0.2308,0.2323,0.2324,0.2322,0.2327,0.2324,0.2326,0.2328,0.2328,0.233,0.2336,0.234,0.2345,0.236,0.2359,0.2366,0.2369,0.237,0.2372,0.2377,0.238,0.2352,0.2352,0.2352,0,0,0.231,0.2312,0.2317,0.2326,0.2328,0.2335,0.2324,0.2333,0.2338,0.2329,0.2339,0.2339,0.2341,0.2354,0.236,0.2355,0.2379,0.2372,0.2373,0.2374,0.2379,0.2381,0.2383,0.2353,0.2353,0.2352,0,0,0.2333,0.2336,0.2348,0.235,0.2352,0.2351,0.2353,0.2355,0.2354,0.2365,0.2357,0.2362,0.2373,0.2374,0.2376,0.2396,0.239,0.2398,0.2409,0.2414,0.2416,0.2418,0.2424,0.2426,0.2399,0.2399,0.2399,0,0.2347,0.2359,0.2355,0.2363,0.2366,0.2357,0.2368,0.237,0.2374,0.2376,0.237,0.2381,0.2382,0.2394,0.2398,0.2401,0.2402,0.2398,0.2417,0.2418,0.242,0.2425,0.2427,0.24,0.24,0.24,0.24,0,0.2373,0.2381,0.239,0.2394,0.2398,0.2407,0.2403,0.2407,0.2403,0.2401,0.241,0.241,0.2414,0.2417,0.2414,0.2427,0.2424,0.2418,0.2408,0.2424,0.2428,0.243,0.2401,0.2401,0.2401,0.24,0,0,0.2408,0.2408,0.2411,0.2411,0.2412,0.2418,0.2426,0.2429,0.2432,0.2434,0.244,0.2447,0.2441,0.2443,0.2439,0.2443,0.2457,0.2436,0.2436,0.2439,0.2469,0.2473,0.2475,0.2452,0.2453,0.2453,0.2468,0,0.243,0.2445,0.244,0.2454,0.246,0.245,0.2457,0.2457,0.2455,0.2459,0.2456,0.246,0.2452,0.2453,0.2457,0.2454,0.2462,0.2453,0.2456,0.2456,0.2455,0.2478,0.2483,0.2497,0.247,0.247,0.2471,0,0.2459,0.2461,0.2476,0.2473,0.2476,0.2482,0.2483,0.2487,0.2486,0.2484,0.2485,0.2479,0.2485,0.2475,0.2482,0.2475,0.2476,0.2474,0.2475,0.2475,0.2464,0.2477,0.2502,0.2504,0.2474,0.2474,0.2473,0,0.2481,0.2488,0.2497,0.2497,0.2495,0.2499,0.2498,0.2497,0.2498,0.2499,0.25,0.2501,0.2502,0.2503,0.2496,0.249,0.2503,0.2493,0.25,0.25,0.2503,0.2503,0.2527,0.2505,0.2505,0.2505,0.2505,0,0.2505,0.2514,0.2506,0.2512,0.252,0.2513,0.2522,0.252,0.2518,0.2522,0.2513,0.2517,0.2509,0.2511,0.2506,0.2511,0.2511,0.2508,0.2507,0.2509,0.2509,0.2509,0.2508,0.2505,0.2505,0.2505,0.2505,0,0.2532,0.2527,0.2535,0.2532,0.2531,0.2537,0.2533,0.2537,0.2533,0.2538,0.2538,0.2532,0.2534,0.2527,0.2528,0.2525,0.2532,0.2529,0.2532,0.2531,0.2537,0.2536,0.2562,0.2564,0.2541,0.2541,0.2541,0,0.2547,0.2554,0.255,0.2552,0.2551,0.2554,0.2555,0.2548,0.2549,0.2547,0.2551,0.2552,0.2552,0.2554,0.2549,0.2549,0.2545,0.2554,0.2545,0.2546,0.2544,0.2543,0.2543,0.2556,0.2556,0.2557,0.2557,0,0.2575,0.2572,0.2574,0.2575,0.2576,0.2576,0.2576,0.2577,0.2569,0.257,0.2572,0.2572,0.2571,0.2572,0.257,0.2567,0.256,0.2559,0.2561,0.2563,0.2564,0.2562,0.2536,0.2559,0.2559,0.2559,0.2559,0.2558,0.2596,0.26,0.2598,0.2599,0.2598,0.2597,0.26,0.2595,0.2597,0.2596,0.2591,0.2593,0.2589,0.2586,0.2583,0.2584,0.2579,0.2581,0.2582,0.2582,0.2583,0.2564,0.2583,0.2583,0.2583,0.2583,0.2583,0,0.2622,0.262,0.2621,0.262,0.2621,0.2614,0.2612,0.2613,0.2615,0.2612,0.2612,0.2612,0.2611,0.2605,0.2603,0.2604,0.2601,0.2604,0.2604,0.2603,0.2588,0.2586,0.2607,0.2607,0.2607,0.2607,0.2607,0.2607,0.2636,0.2642,0.2638,0.2642,0.2639,0.2641,0.264,0.2638,0.2635,0.2636,0.2635,0.2631,0.2626,0.2624,0.2622,0.262,0.2619,0.2624,0.262,0.2606,0.2604,0.2602,0.26,0.2624,0.2624,0.2635,0.2635,0.2635]}]]